Location: Handeloh
(53.2500°N, 9.8330°E)
Time: 02:07:26
(UTC+01:00)

Tiros 1 - All Passes

Search period start: 16 November 2019 00:00
Search period end: 26 November 2019 00:00
Orbit: 630 x 664 km, 48.4° (Epoch: 14 November)

Date Brightness Start Highest point End Pass type
(mag) Time Alt. Az. Time Alt. Az. Time Alt. Az.
16 Nov - 15:05:48 10° S 15:08:05 14° SE 15:10:23 10° ESE daylight
16 Nov - 16:45:09 10° SW 16:49:19 34° SSE 16:53:32 10° E daylight
16 Nov - 18:26:34 10° WSW 18:31:02 47° S 18:35:32 10° ESE visible
16 Nov - 20:08:33 10° W 20:12:43 33° SSW 20:16:55 10° SE visible
16 Nov - 21:51:51 10° WSW 21:53:56 13° SW 21:56:02 10° SSW night (unlit)
17 Nov - 15:30:03 10° SSW 15:33:38 23° SSE 15:37:15 10° E daylight
17 Nov - 17:10:46 10° WSW 17:15:09 43° S 17:19:34 10° E visible
17 Nov - 18:52:30 10° W 18:56:54 43° S 19:01:20 10° ESE visible
17 Nov - 20:34:47 10° W 20:38:25 22° SSW 20:42:04 10° SSE visible
18 Nov - 14:16:05 10° SSE 14:18:07 13° SE 14:20:10 10° ESE daylight
18 Nov - 15:55:12 10° SW 15:59:20 33° SSE 16:03:30 10° E daylight
18 Nov - 17:36:35 10° WSW 17:41:01 47° S 17:45:30 10° ESE visible
18 Nov - 19:18:32 10° W 19:22:43 34° SSW 19:26:56 10° SE visible
18 Nov - 21:01:40 10° WSW 21:03:58 14° SW 21:06:18 10° S visible
19 Nov - 14:40:10 10° SSW 14:43:40 21° SSE 14:47:11 10° E daylight
19 Nov - 16:20:47 10° WSW 16:25:09 42° S 16:29:32 10° E daylight
19 Nov - 18:02:30 10° W 18:06:54 44° S 18:11:20 10° ESE visible
19 Nov - 19:44:44 10° W 19:48:26 23° SSW 19:52:08 10° SSE visible
20 Nov - 13:26:26 10° SSE 13:28:10 12° SE 13:29:54 10° ESE daylight
20 Nov - 15:05:15 10° SW 15:09:21 32° SSE 15:13:27 10° E daylight
20 Nov - 16:46:35 10° WSW 16:51:01 47° S 16:55:29 10° ESE visible
20 Nov - 18:28:31 10° W 18:32:43 35° SSW 18:36:57 10° SE visible
20 Nov - 20:11:30 10° WSW 20:14:00 14° SW 20:16:31 10° S visible
21 Nov - 13:50:17 10° SSW 13:53:41 20° SSE 13:57:06 10° E daylight
21 Nov - 15:30:48 10° WSW 15:35:08 41° SSE 15:39:31 10° E daylight
21 Nov - 17:12:29 10° W 17:16:53 44° S 17:21:19 10° ESE visible
21 Nov - 18:54:42 10° W 18:58:27 24° SSW 19:02:13 10° SSE visible
22 Nov - 12:36:51 10° SSE 12:38:12 11° SE 12:39:34 10° ESE daylight
22 Nov - 14:15:19 10° SW 14:19:22 30° SSE 14:23:25 10° E daylight
22 Nov - 15:56:35 10° WSW 16:01:01 47° S 16:05:28 10° ESE daylight
22 Nov - 17:38:29 10° W 17:42:44 36° SSW 17:46:58 10° SE visible
22 Nov - 19:21:21 10° WSW 19:24:01 15° SW 19:26:43 10° S visible
23 Nov - 13:00:25 10° SSW 13:03:43 19° SSE 13:07:01 10° ESE daylight
23 Nov - 14:40:49 10° SW 14:45:08 40° SSE 14:49:29 10° E daylight
23 Nov - 16:22:29 10° W 16:26:53 45° S 16:31:19 10° ESE daylight
23 Nov - 18:04:39 10° W 18:08:27 25° SSW 18:12:17 10° SSE visible
24 Nov - 11:47:29 10° SSE 11:48:15 10° SE 11:49:01 10° SE daylight
24 Nov - 13:25:22 10° SW 13:29:22 29° SSE 13:33:22 10° E daylight
24 Nov - 15:06:35 10° WSW 15:11:00 46° S 15:15:27 10° ESE daylight
24 Nov - 16:48:28 10° W 16:52:44 37° SSW 16:56:59 10° SE visible
24 Nov - 18:31:14 10° WSW 18:34:04 16° SW 18:36:53 10° S visible
25 Nov - 12:10:33 10° S 12:13:44 19° SSE 12:16:55 10° ESE daylight
25 Nov - 13:50:50 10° SW 13:55:08 39° SSE 13:59:27 10° E daylight
25 Nov - 15:32:28 10° WSW 15:36:53 45° S 15:41:18 10° ESE daylight
25 Nov - 17:14:36 10° W 17:18:28 26° SSW 17:22:20 10° SSE visible
